map of PRH home
PRH - Airport
Location
City:  Phrae, Phrae, Thailand
ICAO:VTCP
IATA:PRH

Details
Type:Airport (Aerodrome, Airfield)
Use:Public/Civil
Latitude:1807'56"N (18.132169)
Longitude:10009'53"E (100.164664)
Datum:WGS 1984
Elevation:538 ft (164 m)
Variation:0.91W (WMM2015v2 magnetic declination)
-0.03 annual change
Runways:1
Longest:4921 × 98 ft (1500 × 30 m), paved

Time
Time Zone:UTC+7
Local Time:

Weather
METAR:VTCP 041100Z 00000KT 8000 NSC 32/15 Q1011 NOSIG
TAF:VTCP 041100Z 0412/0512 16005KT 9999 FEW025
BECMG 0421/0423 2000 BR
BECMG 0501/0503 9999 NSW

Related Locations
Nearby:
Farthest:SJA: 12078 mi / 19438 km
San Juan de Marcona [San Juan de Marcona Airport], ICA, PE

Find:

   beyond  
but within

Other Information
Maps:
NOTAMs:
Links:
Sources:

  
  • flag of Thailand
  

Sectional Chart

Flight Planning
at skyvector.com

Satellite Image

Google Maps Satellite view

 

Copyright © 2004-2019 Karl L. Swartz. All rights reserved.
The Great Circle Mapper name and logo are trademarks of the Great Circle Mapper.
All other trademarks mentioned herein belong to their respective owners.
Please see credits for attibutions and further copyright information.

  Follow gcmap on Facebook Follow gcmap on Twitter GCmap on LinkedIn

hCard Microformat

Geo Microformat